CAL63 RCTP-LOWW

Flight info

Callsign CAL63
Flight time N/A
Altitude 32000
Route CHALI1A CHALI T3 MKG A1 KADLO T1 KAPLI DCT ALLEY V10 SIKOU/K0933S0980 R339 WUY R474 TEBAK/K0928F320 R474 NOB W21 BQ B214 LADON/N0500F320 B214 AKSAG B465 APAGO/N0496F340 B465 CEA R460 LKN M890 SULOM A466 DI N644 VUVEN/N0493F360 N644 LEMOD A909 RODAR N644 ADEKI DCT BADIR DCT LAGAS DCT FOQUS DCT SARPI/N0473F380 UM10 GOKPA UL746 ODERO L746 LUGEB DCT BUDOP DCT BALUX DCT TORNO DCT NATEX NATEX2W
Aircraft B77W/H-SDE1E2E3FGHIJ2J3J5M1P2RWY/LB1D1

Departure

Time 2026-04-30 18:34
Airport Taiwan Taoyuan International Airport (RCTP)

Arrival

Time N/A
Airport Vienna International Airport (LOWW)
Time Latitude Longitude Altitude Speed Heading
2026-04-30 18:09 25.08179 121.23393 106 ft 0 kts 139°
2026-04-30 18:11 25.08197 121.23375 105 ft 3 kts 139°
2026-04-30 18:11 25.08244 121.23335 104 ft 3 kts 164°
2026-04-30 18:12 25.08284 121.23353 105 ft 3 kts 229°
2026-04-30 18:13 25.08295 121.23367 104 ft 0 kts 229°
2026-04-30 18:20 25.08289 121.23360 106 ft 4 kts 229°
2026-04-30 18:21 25.08272 121.23338 108 ft 4 kts 229°
2026-04-30 18:21 25.08254 121.23315 108 ft 4 kts 229°
2026-04-30 18:21 25.08236 121.23292 108 ft 5 kts 229°
2026-04-30 18:21 25.08191 121.23235 107 ft 10 kts 229°
2026-04-30 18:22 25.08165 121.23181 109 ft 8 kts 271°
2026-04-30 18:22 25.08178 121.23151 107 ft 0 kts 307°
2026-04-30 18:23 25.08179 121.23150 105 ft 1 kts 307°
2026-04-30 18:23 25.08196 121.23124 107 ft 7 kts 306°
2026-04-30 18:23 25.08190 121.23066 108 ft 10 kts 233°
2026-04-30 18:24 25.08091 121.22939 107 ft 15 kts 229°
2026-04-30 18:24 25.08017 121.22845 108 ft 17 kts 229°
2026-04-30 18:24 25.07911 121.22710 108 ft 17 kts 229°
2026-04-30 18:25 25.07858 121.22643 108 ft 17 kts 229°
2026-04-30 18:25 25.07672 121.22406 107 ft 17 kts 229°
2026-04-30 18:25 25.07619 121.22339 108 ft 17 kts 229°
2026-04-30 18:26 25.07461 121.22139 107 ft 15 kts 229°
2026-04-30 18:26 25.07409 121.22073 108 ft 11 kts 224°
2026-04-30 18:26 25.07343 121.22087 106 ft 11 kts 141°
2026-04-30 18:27 25.07232 121.22194 108 ft 11 kts 138°
2026-04-30 18:27 25.07176 121.22247 107 ft 11 kts 141°
2026-04-30 18:28 25.07060 121.22354 109 ft 12 kts 139°
2026-04-30 18:28 25.06990 121.22421 107 ft 15 kts 139°
2026-04-30 18:28 25.06823 121.22579 106 ft 16 kts 139°
2026-04-30 18:29 25.06739 121.22659 107 ft 16 kts 139°
2026-04-30 18:29 25.06555 121.22633 107 ft 11 kts 229°
2026-04-30 18:30 25.06454 121.22505 106 ft 11 kts 229°
2026-04-30 18:30 25.06354 121.22377 107 ft 11 kts 229°
2026-04-30 18:31 25.06303 121.22312 107 ft 11 kts 229°
2026-04-30 18:31 25.06195 121.22262 105 ft 10 kts 144°
2026-04-30 18:32 25.06105 121.22352 104 ft 7 kts 126°
2026-04-30 18:32 25.06116 121.22395 102 ft 5 kts 54°
2026-04-30 18:32 25.06121 121.22402 102 ft 0 kts 50°
2026-04-30 18:33 25.06134 121.22418 104 ft 12 kts 50°
2026-04-30 18:33 25.06709 121.23147 101 ft 121 kts 49°
2026-04-30 18:33 25.07370 121.23982 100 ft 166 kts 49°
2026-04-30 18:34 25.08183 121.24981 376 ft 174 kts 49°
2026-04-30 18:34 25.09806 121.27073 1190 ft 182 kts 51°
2026-04-30 18:34 25.10618 121.28137 1640 ft 182 kts 50°
2026-04-30 18:35 25.11440 121.29206 1912 ft 188 kts 49°
2026-04-30 18:35 25.12515 121.30051 1986 ft 201 kts 15°
2026-04-30 18:35 25.13931 121.29987 2205 ft 213 kts 341°
2026-04-30 18:36 25.16180 121.27822 2909 ft 224 kts 316°
2026-04-30 18:36 25.17238 121.26454 2854 ft 249 kts 298°
2026-04-30 18:36 25.16772 121.22691 3351 ft 272 kts 236°
2026-04-30 18:37 25.15648 121.20970 3687 ft 281 kts 236°
2026-04-30 18:37 25.14524 121.19229 4434 ft 270 kts 236°
2026-04-30 18:37 25.13488 121.17580 5456 ft 257 kts 236°
2026-04-30 18:37 25.12484 121.15936 5994 ft 260 kts 236°
2026-04-30 18:38 25.11472 121.14269 6538 ft 262 kts 235°
2026-04-30 18:38 25.10473 121.12619 7232 ft 258 kts 236°
2026-04-30 18:38 25.09469 121.10962 7681 ft 262 kts 236°
2026-04-30 18:38 25.08447 121.09271 8152 ft 266 kts 237°
2026-04-30 18:39 25.07413 121.07557 8579 ft 271 kts 237°
2026-04-30 18:39 25.06365 121.05818 9066 ft 274 kts 237°
2026-04-30 18:39 25.05308 121.04067 9593 ft 275 kts 238°
2026-04-30 18:39 25.04244 121.02305 10069 ft 279 kts 238°
2026-04-30 18:40 25.03149 121.00490 10300 ft 292 kts 238°
2026-04-30 18:40 25.01992 120.98570 10429 ft 309 kts 238°
2026-04-30 18:40 25.00769 120.96542 10556 ft 326 kts 238°
2026-04-30 18:40 24.99477 120.94403 10680 ft 344 kts 238°
2026-04-30 18:41 24.98134 120.92182 11055 ft 352 kts 238°
2026-04-30 18:41 24.96772 120.89932 11621 ft 355 kts 238°
2026-04-30 18:41 24.95389 120.87649 12174 ft 361 kts 238°
2026-04-30 18:41 24.93986 120.85333 12722 ft 367 kts 238°
2026-04-30 18:42 24.92562 120.82984 13346 ft 370 kts 238°
2026-04-30 18:42 24.89673 120.78218 14471 ft 378 kts 238°
2026-04-30 18:42 24.88206 120.75801 15030 ft 381 kts 238°
2026-04-30 18:45 24.72527 120.50989 19887 ft 414 kts 227°
2026-04-30 18:45 24.70385 120.48845 20308 ft 419 kts 223°
2026-04-30 18:45 24.68021 120.46930 20691 ft 424 kts 217°
2026-04-30 18:46 24.65573 120.45096 21095 ft 428 kts 217°
2026-04-30 18:46 24.63097 120.43256 21487 ft 431 kts 217°
2026-04-30 18:46 24.60613 120.41403 21937 ft 433 kts 217°
2026-04-30 18:46 24.58116 120.39529 22336 ft 436 kts 217°
2026-04-30 18:47 24.55607 120.37637 22741 ft 438 kts 218°
2026-04-30 18:47 24.53090 120.35734 23146 ft 441 kts 217°
2026-04-30 18:47 24.50548 120.33812 23477 ft 446 kts 217°
2026-04-30 18:47 24.47988 120.31879 23829 ft 448 kts 218°
2026-04-30 18:48 24.45417 120.29938 24208 ft 449 kts 218°
2026-04-30 18:48 24.42857 120.27980 24602 ft 448 kts 218°
2026-04-30 18:48 24.40301 120.25999 24936 ft 451 kts 219°
2026-04-30 18:48 24.37737 120.24003 25209 ft 454 kts 218°
2026-04-30 18:49 24.35154 120.21995 25518 ft 456 kts 218°
2026-04-30 18:49 24.32560 120.19982 25843 ft 458 kts 218°
2026-04-30 18:49 24.29946 120.17958 26120 ft 461 kts 219°
2026-04-30 18:49 24.27318 120.15925 26483 ft 462 kts 218°
2026-04-30 18:50 24.24684 120.13890 26780 ft 465 kts 218°
2026-04-30 18:50 24.22041 120.11849 27126 ft 466 kts 218°
2026-04-30 18:50 24.19388 120.09801 27399 ft 468 kts 218°
2026-04-30 18:50 24.16718 120.07741 27665 ft 471 kts 218°
2026-04-30 18:51 24.14032 120.05668 27950 ft 473 kts 218°
2026-04-30 18:51 24.11344 120.03588 28231 ft 474 kts 218°
2026-04-30 18:51 24.08643 120.01498 28507 ft 476 kts 218°
2026-04-30 18:51 24.05935 119.99402 28771 ft 478 kts 218°
2026-04-30 18:52 24.03218 119.97301 29028 ft 479 kts 218°
2026-04-30 18:52 24.00485 119.95190 29260 ft 481 kts 218°
2026-04-30 18:52 23.97749 119.93079 29542 ft 481 kts 218°
2026-04-30 18:52 23.95022 119.90980 30012 ft 478 kts 218°
2026-04-30 18:53 23.92315 119.88898 30407 ft 475 kts 219°
2026-04-30 18:53 23.89615 119.86821 30713 ft 474 kts 219°
2026-04-30 18:53 23.86920 119.84747 31004 ft 473 kts 219°
2026-04-30 18:53 23.84227 119.82675 31319 ft 472 kts 219°
2026-04-30 18:54 23.81543 119.80611 31576 ft 472 kts 219°
2026-04-30 18:54 23.78862 119.78550 31854 ft 471 kts 219°
2026-04-30 18:54 23.76207 119.76511 31946 ft 474 kts 219°
2026-04-30 18:55 23.70819 119.72375 32024 ft 471 kts 219°
2026-04-30 18:55 23.62868 119.66217 32021 ft 464 kts 223°
2026-04-30 18:56 23.56420 119.58529 32024 ft 456 kts 239°
2026-04-30 18:57 23.51363 119.49734 32008 ft 458 kts 240°
2026-04-30 18:57 23.47977 119.43837 32022 ft 459 kts 240°
2026-04-30 18:58 23.42853 119.35001 32014 ft 461 kts 240°
2026-04-30 18:59 23.37705 119.26159 32011 ft 461 kts 240°
2026-04-30 19:00 23.30842 119.14392 31997 ft 460 kts 240°
2026-04-30 19:01 23.24000 119.02684 32000 ft 458 kts 240°
2026-04-30 19:02 23.18874 118.93931 31994 ft 457 kts 239°
2026-04-30 19:03 23.12044 118.82291 32016 ft 457 kts 239°
2026-04-30 19:04 23.05221 118.70689 32001 ft 456 kts 239°
2026-04-30 19:05 22.98380 118.59094 32014 ft 456 kts 238°
2026-04-30 19:05 22.94096 118.54003 32005 ft 461 kts 223°
2026-04-30 19:06 22.88769 118.50073 32021 ft 467 kts 212°
2026-04-30 19:06 22.80207 118.45130 32006 ft 466 kts 212°
2026-04-30 19:07 22.71676 118.40095 32002 ft 466 kts 213°
2026-04-30 19:08 22.60295 118.33393 31996 ft 465 kts 212°
2026-04-30 19:09 22.51764 118.28392 31996 ft 465 kts 212°
2026-04-30 19:09 22.46084 118.25063 32005 ft 464 kts 212°
2026-04-30 19:10 22.34741 118.18416 31985 ft 464 kts 213°
2026-04-30 19:11 22.27189 118.13981 32000 ft 464 kts 213°
2026-04-30 19:12 22.21519 118.10666 31996 ft 464 kts 213°
2026-04-30 19:12 22.15839 118.07356 31993 ft 464 kts 212°
2026-04-30 19:13 22.04480 118.00741 31985 ft 464 kts 212°
2026-04-30 19:14 21.98801 117.97438 31994 ft 464 kts 212°
2026-04-30 19:14 21.93122 117.94136 31989 ft 464 kts 212°
2026-04-30 19:15 21.87438 117.90836 31987 ft 464 kts 212°
2026-04-30 19:15 21.78907 117.85887 31979 ft 465 kts 212°
2026-04-30 19:16 21.73199 117.82579 31990 ft 466 kts 212°
2026-04-30 19:17 21.64607 117.77607 31981 ft 468 kts 212°
2026-04-30 19:17 21.55998 117.72631 31970 ft 469 kts 212°
2026-04-30 19:18 21.47376 117.67655 31980 ft 469 kts 212°
2026-04-30 19:19 21.41621 117.64337 31977 ft 469 kts 212°
2026-04-30 19:19 21.32988 117.59365 31977 ft 469 kts 212°
2026-04-30 19:20 21.27233 117.56053 31965 ft 469 kts 212°
2026-04-30 19:21 21.19301 117.50237 32003 ft 455 kts 237°
2026-04-30 19:21 21.16742 117.44111 31971 ft 453 kts 258°
2026-04-30 19:22 21.16399 117.37407 31976 ft 453 kts 269°
2026-04-30 19:23 21.16309 117.17040 31983 ft 458 kts 269°
2026-04-30 19:24 21.16173 117.06817 31974 ft 456 kts 268°
2026-04-30 19:25 21.15936 116.89934 31972 ft 451 kts 268°
2026-04-30 19:26 21.15737 116.76502 31977 ft 451 kts 268°
2026-04-30 19:27 21.15585 116.66741 31975 ft 452 kts 269°
2026-04-30 19:28 21.15423 116.56622 31985 ft 454 kts 268°
2026-04-30 19:29 21.15195 116.43056 31987 ft 456 kts 268°
2026-04-30 19:30 21.14956 116.29462 31981 ft 456 kts 268°
2026-04-30 19:31 21.14707 116.15882 31989 ft 456 kts 268°
2026-04-30 19:31 21.14513 116.05704 31981 ft 455 kts 268°
2026-04-30 19:32 21.14380 115.98929 31985 ft 455 kts 268°
2026-04-30 19:32 21.14245 115.92158 31988 ft 455 kts 268°
2026-04-30 19:33 21.14108 115.85425 31987 ft 455 kts 268°
2026-04-30 19:33 21.13967 115.78654 31985 ft 455 kts 268°
2026-04-30 19:34 21.13824 115.71887 31981 ft 455 kts 268°
2026-04-30 19:35 21.13605 115.61736 31995 ft 454 kts 268°
2026-04-30 19:35 21.13455 115.54968 31982 ft 454 kts 268°
2026-04-30 19:36 21.13302 115.48216 31982 ft 453 kts 268°
2026-04-30 19:36 21.13069 115.38107 31987 ft 452 kts 268°
2026-04-30 19:37 21.12911 115.31370 31985 ft 452 kts 268°
2026-04-30 19:37 21.12750 115.24638 31987 ft 453 kts 268°
2026-04-30 19:38 21.12585 115.17889 31987 ft 453 kts 268°
2026-04-30 19:38 21.12418 115.11134 31988 ft 454 kts 267°
2026-04-30 19:39 21.12248 115.04366 31983 ft 455 kts 267°
2026-04-30 19:39 21.12075 114.97586 31983 ft 456 kts 267°
2026-04-30 19:40 21.11899 114.90783 31985 ft 457 kts 267°
2026-04-30 19:40 21.11720 114.83974 31983 ft 458 kts 267°
2026-04-30 19:41 21.11538 114.77159 31984 ft 458 kts 267°
2026-04-30 19:41 21.11353 114.70345 31985 ft 458 kts 267°
2026-04-30 19:42 21.11165 114.63535 31986 ft 458 kts 267°
2026-04-30 19:42 21.10975 114.56727 31985 ft 457 kts 267°
2026-04-30 19:43 21.10783 114.49925 31988 ft 457 kts 267°
2026-04-30 19:44 21.10489 114.39733 31984 ft 456 kts 267°
2026-04-30 19:44 21.10291 114.32987 31986 ft 457 kts 267°
2026-04-30 19:45 21.10089 114.26179 31987 ft 457 kts 267°
2026-04-30 19:45 21.09884 114.19364 31987 ft 458 kts 267°
2026-04-30 19:46 21.09676 114.12544 31984 ft 459 kts 267°
2026-04-30 19:46 21.09465 114.05716 31993 ft 459 kts 267°
2026-04-30 19:47 21.09251 113.98879 31984 ft 460 kts 267°
2026-04-30 19:47 21.09034 113.92032 31988 ft 460 kts 267°
2026-04-30 19:48 21.08814 113.85176 31990 ft 461 kts 267°
2026-04-30 19:48 21.08154 113.78377 31985 ft 459 kts 258°
2026-04-30 19:49 21.06468 113.71793 31995 ft 459 kts 251°
2026-04-30 19:49 21.03282 113.62123 31980 ft 459 kts 251°
2026-04-30 19:50 21.01171 113.55672 31988 ft 459 kts 251°
2026-04-30 19:50 20.99070 113.49215 31990 ft 459 kts 251°
2026-04-30 19:51 20.96971 113.42761 31990 ft 459 kts 251°
2026-04-30 19:51 20.94872 113.36314 31992 ft 459 kts 251°
2026-04-30 19:52 20.92768 113.29862 31992 ft 459 kts 251°
2026-04-30 19:52 20.90661 113.23414 31989 ft 459 kts 251°
2026-04-30 19:53 20.88553 113.16970 31989 ft 459 kts 251°
2026-04-30 19:53 20.86444 113.10532 32002 ft 459 kts 251°
2026-04-30 19:54 20.84329 113.04085 31992 ft 460 kts 251°
2026-04-30 19:54 20.82224 112.97675 31981 ft 460 kts 250°
2026-04-30 19:55 20.80104 112.91231 31990 ft 460 kts 250°
2026-04-30 19:55 20.77981 112.84789 31988 ft 460 kts 250°
2026-04-30 19:56 20.75854 112.78341 31992 ft 460 kts 250°
2026-04-30 19:56 20.73726 112.71900 31988 ft 461 kts 251°
2026-04-30 19:57 20.71937 112.66492 31994 ft 461 kts 250°
2026-04-30 19:57 20.69797 112.60032 31993 ft 462 kts 250°
2026-04-30 19:58 20.67666 112.53606 31992 ft 462 kts 250°
2026-04-30 19:58 20.65517 112.47138 31989 ft 462 kts 250°
2026-04-30 19:59 20.63364 112.40664 31989 ft 463 kts 250°
2026-04-30 20:00 20.60126 112.30946 31991 ft 464 kts 250°
2026-04-30 20:00 20.57961 112.24455 31993 ft 464 kts 250°
2026-04-30 20:01 20.56171 112.14469 31997 ft 463 kts 275°
2026-04-30 20:01 20.58055 112.07905 31991 ft 468 kts 294°
2026-04-30 20:02 20.62449 111.98541 31995 ft 472 kts 294°
2026-04-30 20:03 20.66771 111.89046 31995 ft 475 kts 293°
2026-04-30 20:03 20.69615 111.82724 31986 ft 475 kts 293°
2026-04-30 20:04 20.72492 111.76327 31995 ft 474 kts 293°
2026-04-30 20:05 20.76769 111.66808 31989 ft 473 kts 293°
2026-04-30 20:05 20.81004 111.57363 31990 ft 471 kts 293°
2026-04-30 20:06 20.83794 111.51034 31991 ft 470 kts 290°
2026-04-30 20:06 20.85770 111.44420 32025 ft 466 kts 282°
2026-04-30 20:07 20.87390 111.37730 32082 ft 466 kts 283°
2026-04-30 20:08 20.89888 111.27653 32091 ft 468 kts 283°
2026-04-30 20:08 20.91569 111.20918 32089 ft 470 kts 283°
2026-04-30 20:09 20.93252 111.14154 32088 ft 471 kts 283°
2026-04-30 20:09 20.95777 111.03994 32084 ft 471 kts 283°
2026-04-30 20:10 20.98343 110.93839 32084 ft 471 kts 283°
2026-04-30 20:11 21.00903 110.83703 32080 ft 470 kts 283°
2026-04-30 20:11 21.02604 110.76938 32079 ft 470 kts 283°
2026-04-30 20:12 21.05150 110.66787 32081 ft 471 kts 283°
2026-04-30 20:13 21.06847 110.60007 32082 ft 472 kts 283°
2026-04-30 20:13 21.08543 110.53219 32081 ft 472 kts 283°
2026-04-30 20:14 21.10227 110.46462 32083 ft 473 kts 284°
2026-04-30 20:14 21.11924 110.39647 32080 ft 474 kts 284°
2026-04-30 20:15 21.13876 110.32889 32077 ft 477 kts 290°
2026-04-30 20:15 21.16842 110.26520 32089 ft 479 kts 297°
2026-04-30 20:16 21.20056 110.20270 32080 ft 479 kts 297°
2026-04-30 20:16 21.23251 110.13989 32079 ft 480 kts 297°
2026-04-30 20:17 21.26435 110.07683 32084 ft 482 kts 298°
2026-04-30 20:17 21.29625 110.01340 32084 ft 484 kts 298°
2026-04-30 20:18 21.32818 109.94985 32084 ft 485 kts 298°
2026-04-30 20:18 21.36015 109.88614 32077 ft 485 kts 298°
2026-04-30 20:19 21.39214 109.82235 32074 ft 485 kts 298°
2026-04-30 20:19 21.42407 109.75860 32077 ft 485 kts 298°
2026-04-30 20:20 21.45594 109.69487 32077 ft 485 kts 298°
2026-04-30 20:20 21.48779 109.63113 32078 ft 484 kts 298°
2026-04-30 20:21 21.51960 109.56737 32084 ft 484 kts 298°
2026-04-30 20:21 21.55139 109.50358 32081 ft 484 kts 298°
2026-04-30 20:22 21.58382 109.44019 32077 ft 484 kts 302°
2026-04-30 20:22 21.62443 109.38252 32090 ft 485 kts 310°
2026-04-30 20:23 21.66824 109.32738 32085 ft 485 kts 309°
2026-04-30 20:23 21.71176 109.27190 32086 ft 486 kts 309°
2026-04-30 20:24 21.75507 109.21615 32082 ft 486 kts 309°
2026-04-30 20:24 21.79841 109.16026 32085 ft 486 kts 309°
2026-04-30 20:25 21.86344 109.07648 32095 ft 486 kts 309°
2026-04-30 20:26 21.92854 108.99342 32090 ft 486 kts 309°
2026-04-30 20:26 21.99387 108.90993 32097 ft 485 kts 309°
2026-04-30 20:27 22.08066 108.79867 32085 ft 484 kts 309°
2026-04-30 20:28 22.16726 108.68778 32103 ft 483 kts 309°
2026-04-30 20:30 22.27555 108.54934 32112 ft 483 kts 309°
2026-04-30 20:31 22.40531 108.38281 32100 ft 483 kts 309°
2026-04-30 20:32 22.51305 108.24412 32123 ft 481 kts 309°
2026-04-30 20:33 22.57084 108.15671 32133 ft 475 kts 287°
2026-04-30 20:33 22.57752 108.12187 32106 ft 476 kts 274°
2026-04-30 20:34 22.57051 108.05096 32107 ft 477 kts 259°
2026-04-30 20:35 22.55013 107.94502 32126 ft 482 kts 259°
2026-04-30 20:35 22.53075 107.83832 32116 ft 485 kts 260°
2026-04-30 20:36 22.51805 107.76677 32114 ft 484 kts 260°
2026-04-30 20:37 22.49899 107.65982 32123 ft 482 kts 259°
2026-04-30 20:37 22.48626 107.58880 32121 ft 480 kts 259°
2026-04-30 20:38 22.47354 107.51800 32105 ft 479 kts 259°
2026-04-30 20:38 22.46079 107.44728 32117 ft 479 kts 259°
2026-04-30 20:39 22.44162 107.34118 32118 ft 480 kts 259°
2026-04-30 20:40 22.42233 107.23469 32114 ft 482 kts 259°
2026-04-30 20:40 22.40968 107.16342 32113 ft 483 kts 259°
2026-04-30 20:41 22.39068 107.05629 32115 ft 484 kts 259°
2026-04-30 20:41 22.37794 106.98488 32107 ft 484 kts 259°
2026-04-30 20:42 22.36463 106.91370 32106 ft 482 kts 254°
2026-04-30 20:42 22.34180 106.85897 32121 ft 483 kts 238°
2026-04-30 20:43 22.31447 106.82059 32112 ft 484 kts 226°
2026-04-30 20:43 22.26562 106.77035 32112 ft 485 kts 225°
2026-04-30 20:44 22.20111 106.70279 32111 ft 486 kts 226°
2026-04-30 20:45 22.09828 106.60709 32024 ft 491 kts 220°
2026-04-30 20:45 22.04493 106.56118 32015 ft 491 kts 220°
2026-04-30 20:46 21.93912 106.46861 32022 ft 489 kts 220°
2026-04-30 20:47 21.86004 106.39922 32019 ft 489 kts 220°
2026-04-30 20:48 21.78094 106.32985 32009 ft 489 kts 221°
2026-04-30 20:48 21.72811 106.28360 32013 ft 490 kts 220°
2026-04-30 20:49 21.67523 106.23737 32017 ft 490 kts 220°
2026-04-30 20:50 21.59589 106.16807 32005 ft 490 kts 221°
2026-04-30 20:50 21.54291 106.12185 32009 ft 490 kts 221°
2026-04-30 20:51 21.48996 106.07571 32008 ft 490 kts 220°
2026-04-30 20:51 21.41058 106.00661 31989 ft 490 kts 220°
2026-04-30 20:52 21.35763 105.96056 31992 ft 490 kts 221°
2026-04-30 20:53 21.27829 105.89164 31972 ft 489 kts 221°
2026-04-30 20:53 21.23059 105.84154 31959 ft 481 kts 242°
2026-04-30 20:54 21.21093 105.77423 31962 ft 476 kts 269°
2026-04-30 20:54 21.21081 105.73889 31990 ft 475 kts 271°
2026-04-30 20:55 21.21169 105.63181 31973 ft 482 kts 270°
2026-04-30 20:55 21.21151 105.55987 31978 ft 483 kts 270°
2026-04-30 20:56 21.21074 105.45196 31974 ft 482 kts 270°
2026-04-30 20:57 21.20993 105.34458 31975 ft 479 kts 270°
2026-04-30 20:57 21.20938 105.27334 31970 ft 478 kts 270°
2026-04-30 20:58 21.20849 105.16659 31986 ft 478 kts 270°
2026-04-30 20:58 21.20792 105.09541 31979 ft 478 kts 270°
2026-04-30 20:59 21.20888 104.98836 31981 ft 480 kts 271°
2026-04-30 21:00 21.21037 104.84533 31988 ft 480 kts 271°
2026-04-30 21:01 21.21121 104.73808 31995 ft 480 kts 270°
2026-04-30 21:02 21.21196 104.63081 31994 ft 480 kts 270°
2026-04-30 21:02 21.21244 104.55938 32005 ft 479 kts 270°
2026-04-30 21:03 21.21288 104.48803 32012 ft 479 kts 270°
2026-04-30 21:03 21.21329 104.41660 31997 ft 479 kts 270°
2026-04-30 21:04 21.21368 104.34528 32003 ft 479 kts 270°
2026-04-30 21:04 21.21420 104.23828 32008 ft 479 kts 270°
2026-04-30 21:05 21.21452 104.16693 31989 ft 479 kts 270°
2026-04-30 21:05 21.21480 104.09573 31995 ft 477 kts 270°
2026-04-30 21:06 21.21417 104.02465 31980 ft 477 kts 265°
2026-04-30 21:06 21.20704 103.95401 31983 ft 477 kts 264°
2026-04-30 21:07 21.19955 103.88378 31976 ft 478 kts 264°
2026-04-30 21:07 21.19216 103.81246 31985 ft 479 kts 264°
2026-04-30 21:08 21.18497 103.74206 31978 ft 478 kts 264°
2026-04-30 21:08 21.17773 103.67119 31982 ft 478 kts 264°
2026-04-30 21:09 21.17047 103.60046 31978 ft 478 kts 264°
2026-04-30 21:09 21.16316 103.52969 31972 ft 477 kts 264°
2026-04-30 21:10 21.15585 103.45914 31977 ft 476 kts 264°
2026-04-30 21:10 21.14852 103.38877 31962 ft 474 kts 264°
2026-04-30 21:11 21.14120 103.31877 31962 ft 473 kts 264°
2026-04-30 21:11 21.13386 103.24881 31965 ft 472 kts 264°
2026-04-30 21:12 21.12651 103.17904 31953 ft 471 kts 263°
2026-04-30 21:12 21.11913 103.10927 31961 ft 472 kts 263°
2026-04-30 21:13 21.11172 103.03947 31951 ft 472 kts 263°
2026-04-30 21:13 21.10428 102.96962 31959 ft 472 kts 263°
2026-04-30 21:14 21.09677 102.89973 31937 ft 473 kts 263°
2026-04-30 21:14 21.08921 102.82975 31946 ft 473 kts 263°
2026-04-30 21:15 21.08164 102.75989 31945 ft 473 kts 263°
2026-04-30 21:15 21.07403 102.68999 31946 ft 473 kts 263°
2026-04-30 21:16 21.06638 102.61991 31949 ft 474 kts 263°
2026-04-30 21:16 21.05870 102.54989 31943 ft 474 kts 263°
2026-04-30 21:17 21.05099 102.47971 31944 ft 474 kts 263°
2026-04-30 21:17 21.04324 102.40960 31942 ft 474 kts 263°
2026-04-30 21:18 21.03548 102.33956 31947 ft 474 kts 262°
2026-04-30 21:18 21.02769 102.26953 31935 ft 473 kts 262°
2026-04-30 21:19 21.01989 102.19973 31941 ft 472 kts 262°
2026-04-30 21:19 21.01213 102.13047 31941 ft 471 kts 262°
2026-04-30 21:20 21.00429 102.06084 31941 ft 471 kts 262°
2026-04-30 21:20 20.99644 101.99131 31959 ft 470 kts 262°
2026-04-30 21:21 20.98856 101.92182 31949 ft 470 kts 262°
2026-04-30 21:22 20.97673 101.81796 31945 ft 468 kts 262°
2026-04-30 21:23 20.96091 101.67987 31942 ft 467 kts 262°
2026-04-30 21:23 20.94900 101.57662 31950 ft 466 kts 261°
2026-04-30 21:24 20.94102 101.50782 31950 ft 466 kts 262°
2026-04-30 21:24 20.93303 101.43907 31950 ft 466 kts 262°
2026-04-30 21:25 20.92105 101.33641 31956 ft 466 kts 262°
2026-04-30 21:26 20.90895 101.23339 31960 ft 465 kts 261°
2026-04-30 21:27 20.89683 101.13067 31958 ft 463 kts 261°
2026-04-30 21:27 20.88872 101.06230 31964 ft 463 kts 261°
2026-04-30 21:28 20.87653 100.95986 31962 ft 463 kts 261°
2026-04-30 21:29 20.86426 100.85735 31951 ft 463 kts 261°
2026-04-30 21:30 20.84509 100.69805 31944 ft 463 kts 261°
2026-04-30 21:31 20.82439 100.52732 31952 ft 463 kts 262°
2026-04-30 21:32 20.82439 100.45846 31948 ft 466 kts 274°
2026-04-30 21:32 20.82893 100.42407 31946 ft 468 kts 278°
2026-04-30 21:32 20.84597 100.35677 31943 ft 470 kts 284°
2026-04-30 21:33 20.87401 100.25629 31955 ft 470 kts 284°
2026-04-30 21:34 20.89240 100.18916 31959 ft 470 kts 283°
2026-04-30 21:34 20.91959 100.08853 31954 ft 469 kts 283°
2026-04-30 21:35 20.93761 100.02160 31955 ft 468 kts 283°
2026-04-30 21:35 20.95560 99.95474 31950 ft 468 kts 283°
2026-04-30 21:36 20.97357 99.88786 31952 ft 467 kts 283°
2026-04-30 21:37 21.00931 99.75441 31956 ft 465 kts 283°
2026-04-30 21:37 21.02705 99.68812 31963 ft 463 kts 283°
2026-04-30 21:38 21.04472 99.62191 31960 ft 461 kts 282°
2026-04-30 21:38 21.06229 99.55593 31951 ft 461 kts 282°
2026-04-30 21:39 21.07985 99.48989 31957 ft 462 kts 282°